When you browse on this site, cookies collect data to enhance your experience and personalize the content and advertising you see.
Visit our Privacy Policy to learn more. By continuing to use the site, you agree to this use of cookies and data.
  • în România
  • Lista ţărilor
  • Pe 7 zile
  • Temperatura apei
  • Hartă satelitară
  • Meteo pe hartă
  • Widget-uri
  • user-avatar
    Intrare

    Meteo pe oră la Arroyomolinos

    Astăzi, 25 Aprilie, Joi

    Timp Temperatura Precipitaţii Vânt Presiune Umiditate
    00:00 +8°C° 0.9 mm 7 m/s 696 mmHg 91%
    01:00 +8°C° 0.4 mm 7 m/s 696 mmHg 90%
    02:00 +6°C° 0.4 mm 7 m/s 696 mmHg 88%
    03:00 +5°C° 0.4 mm 7 m/s 696 mmHg 87%
    04:00 +5°C° 0 mm 7 m/s 696 mmHg 87%
    05:00 +4°C° 0 mm 7 m/s 697 mmHg 87%
    06:00 +4°C° 0 mm 6 m/s 697 mmHg 87%
    07:00 +5°C° 0 mm 7 m/s 698 mmHg 78%
    08:00 +6°C° 0 mm 8 m/s 699 mmHg 68%
    09:00 +8°C° 0 mm 9 m/s 699 mmHg 59%
    10:00 +9°C° 0.1 mm 10 m/s 700 mmHg 56%
    11:00 +11°C° 0.1 mm 11 m/s 700 mmHg 52%
    12:00 +10°C° 0.1 mm 12 m/s 700 mmHg 49%
    13:00 +11°C° 0.1 mm 11 m/s 701 mmHg 48%
    14:00 +11°C° 0.1 mm 11 m/s 701 mmHg 48%
    15:00 +11°C° 0.1 mm 10 m/s 701 mmHg 48%
    16:00 +11°C° 0 mm 10 m/s 702 mmHg 49%
    17:00 +10°C° 0 mm 9 m/s 702 mmHg 51%
    18:00 +10°C° 0 mm 8 m/s 702 mmHg 52%
    19:00 +9°C° 0 mm 7 m/s 703 mmHg 59%
    20:00 +7°C° 0 mm 6 m/s 704 mmHg 65%
    21:00 +6°C° 0 mm 5 m/s 705 mmHg 71%
    22:00 +6°C° 0 mm 5 m/s 705 mmHg 74%
    23:00 +5°C° 0 mm 4 m/s 705 mmHg 76%

    Mâine, 26 Aprilie, Vineri

    Timp Temperatura Precipitaţii Vânt Presiune Umiditate
    00:00 +5°C° 0 mm 4 m/s 706 mmHg 78%
    01:00 +4°C° 0 mm 4 m/s 706 mmHg 79%
    02:00 +4°C° 0 mm 3 m/s 706 mmHg 81%
    03:00 +4°C° 0 mm 3 m/s 707 mmHg 82%
    04:00 +5°C° 0 mm 2 m/s 707 mmHg 81%
    05:00 +4°C° 0 mm 2 m/s 707 mmHg 81%
    06:00 +4°C° 0 mm 2 m/s 708 mmHg 80%
    07:00 +5°C° 0 mm 3 m/s 708 mmHg 69%
    08:00 +9°C° 0 mm 3 m/s 709 mmHg 58%
    09:00 +11°C° 0 mm 3 m/s 709 mmHg 47%
    10:00 +12°C° 0 mm 3 m/s 709 mmHg 42%
    11:00 +14°C° 0 mm 2 m/s 709 mmHg 38%
    12:00 +15°C° 0 mm 2 m/s 709 mmHg 33%
    13:00 +16°C° 0 mm 2 m/s 709 mmHg 32%
    14:00 +17°C° 0 mm 2 m/s 709 mmHg 30%
    15:00 +18°C° 0 mm 2 m/s 709 mmHg 29%
    16:00 +17°C° 0 mm 2 m/s 709 mmHg 31%
    17:00 +17°C° 0 mm 2 m/s 709 mmHg 33%
    18:00 +17°C° 0 mm 2 m/s 709 mmHg 36%
    19:00 +14°C° 0 mm 3 m/s 709 mmHg 40%
    20:00 +13°C° 0 mm 3 m/s 710 mmHg 45%
    21:00 +11°C° 0 mm 3 m/s 710 mmHg 49%
    22:00 +10°C° 0 mm 3 m/s 710 mmHg 52%
    23:00 +10°C° 0 mm 2 m/s 710 mmHg 55%

    Poimâine, 27 Aprilie, Sâmbătă

    Timp Temperatura Precipitaţii Vânt Presiune Umiditate
    00:00 +9°C° 0 mm 2 m/s 710 mmHg 58%
    01:00 +9°C° 0 mm 2 m/s 710 mmHg 59%
    02:00 +8°C° 0 mm 2 m/s 710 mmHg 61%
    03:00 +8°C° 0 mm 1 m/s 709 mmHg 63%
    04:00 +8°C° 0 mm 1 m/s 710 mmHg 64%
    05:00 +8°C° 0 mm 1 m/s 710 mmHg 64%
    06:00 +8°C° 0 mm 1 m/s 710 mmHg 65%
    07:00 +10°C° 0 mm 1 m/s 710 mmHg 58%
    08:00 +12°C° 0 mm 2 m/s 710 mmHg 51%
    09:00 +14°C° 0 mm 2 m/s 710 mmHg 44%
    10:00 +16°C° 0 mm 2 m/s 710 mmHg 40%
    11:00 +18°C° 0 mm 2 m/s 710 mmHg 37%
    12:00 +19°C° 0 mm 2 m/s 710 mmHg 33%
    13:00 +20°C° 0 mm 2 m/s 710 mmHg 32%
    14:00 +21°C° 0 mm 2 m/s 709 mmHg 31%
    15:00 +23°C° 0 mm 2 m/s 709 mmHg 30%
    16:00 +23°C° 0 mm 2 m/s 709 mmHg 33%
    17:00 +22°C° 0 mm 1 m/s 709 mmHg 35%
    18:00 +22°C° 0 mm 1 m/s 709 mmHg 38%
    19:00 +20°C° 0 mm 2 m/s 709 mmHg 42%
    20:00 +18°C° 0 mm 2 m/s 709 mmHg 46%
    21:00 +16°C° 0 mm 3 m/s 710 mmHg 51%
    22:00 +14°C° 0 mm 3 m/s 709 mmHg 53%
    23:00 +13°C° 0 mm 4 m/s 709 mmHg 56%

    28 Aprilie, Duminică

    Timp Temperatura Precipitaţii Vânt Presiune Umiditate
    00:00 +13°C° 0 mm 5 m/s 709 mmHg 58%
    01:00 +12°C° 0 mm 5 m/s 709 mmHg 58%
    02:00 +11°C° 0 mm 4 m/s 708 mmHg 58%
    03:00 +11°C° 0 mm 4 m/s 708 mmHg 58%
    04:00 +10°C° 0 mm 4 m/s 708 mmHg 56%
    05:00 +10°C° 0 mm 4 m/s 708 mmHg 55%
    06:00 +10°C° 0 mm 4 m/s 708 mmHg 53%
    07:00 +12°C° 0 mm 4 m/s 708 mmHg 45%
    08:00 +14°C° 0 mm 4 m/s 708 mmHg 37%
    09:00 +15°C° 0 mm 5 m/s 708 mmHg 29%
    10:00 +18°C° 0 mm 4 m/s 707 mmHg 26%
    11:00 +20°C° 0 mm 4 m/s 707 mmHg 23%
    12:00 +21°C° 0 mm 3 m/s 707 mmHg 19%
    13:00 +22°C° 0 mm 3 m/s 706 mmHg 19%
    14:00 +24°C° 0 mm 3 m/s 706 mmHg 20%
    15:00 +25°C° 0 mm 3 m/s 705 mmHg 20%
    16:00 +24°C° 0 mm 2 m/s 705 mmHg 22%
    17:00 +24°C° 0 mm 2 m/s 705 mmHg 25%
    18:00 +23°C° 0 mm 2 m/s 704 mmHg 28%
    19:00 +20°C° 0 mm 2 m/s 705 mmHg 31%
    20:00 +18°C° 0 mm 2 m/s 705 mmHg 34%
    21:00 +16°C° 0 mm 1 m/s 705 mmHg 38%
    22:00 +16°C° 0 mm 2 m/s 705 mmHg 39%
    23:00 +14°C° 0 mm 3 m/s 704 mmHg 41%

    29 Aprilie, Luni

    Timp Temperatura Precipitaţii Vânt Presiune Umiditate
    00:00 +14°C° 0 mm 4 m/s 704 mmHg 43%
    01:00 +13°C° 0 mm 3 m/s 704 mmHg 47%
    02:00 +12°C° 0 mm 3 m/s 703 mmHg 50%
    03:00 +12°C° 0 mm 3 m/s 703 mmHg 54%
    04:00 +11°C° 0 mm 3 m/s 703 mmHg 59%
    05:00 +11°C° 0 mm 3 m/s 703 mmHg 63%
    06:00 +11°C° 0 mm 3 m/s 703 mmHg 68%
    07:00 +13°C° 0 mm 3 m/s 703 mmHg 63%
    08:00 +14°C° 0 mm 3 m/s 703 mmHg 58%
    09:00 +17°C° 0 mm 3 m/s 703 mmHg 53%
    10:00 +19°C° 0 mm 3 m/s 703 mmHg 48%
    11:00 +20°C° 0 mm 2 m/s 703 mmHg 42%
    12:00 +23°C° 0 mm 2 m/s 703 mmHg 37%
    13:00 +24°C° 0 mm 2 m/s 702 mmHg 34%
    14:00 +25°C° 0 mm 2 m/s 702 mmHg 30%
    15:00 +25°C° 0 mm 1 m/s 701 mmHg 27%
    16:00 +25°C° 0 mm 1 m/s 701 mmHg 29%
    17:00 +25°C° 0 mm 1 m/s 701 mmHg 31%
    18:00 +25°C° 0 mm 1 m/s 701 mmHg 33%
    19:00 +23°C° 0 mm 1 m/s 701 mmHg 36%
    20:00 +21°C° 0 mm 1 m/s 701 mmHg 39%
    21:00 +19°C° 0 mm 1 m/s 701 mmHg 41%
    22:00 +18°C° 0 mm 1 m/s 701 mmHg 46%
    23:00 +16°C° 0 mm 1 m/s 701 mmHg 51%

    30 Aprilie, Marţi

    Timp Temperatura Precipitaţii Vânt Presiune Umiditate
    00:00 +16°C° 0 mm 2 m/s 701 mmHg 56%
    01:00 +15°C° 0 mm 2 m/s 701 mmHg 59%
    02:00 +13°C° 0 mm 3 m/s 701 mmHg 62%
    03:00 +13°C° 0 mm 3 m/s 700 mmHg 65%
    04:00 +12°C° 0 mm 3 m/s 700 mmHg 66%
    05:00 +12°C° 0 mm 3 m/s 700 mmHg 68%
    06:00 +12°C° 0 mm 3 m/s 700 mmHg 70%
    07:00 +14°C° 0 mm 3 m/s 700 mmHg 64%
    08:00 +16°C° 0 mm 2 m/s 700 mmHg 57%
    09:00 +18°C° 0 mm 2 m/s 701 mmHg 51%
    10:00 +20°C° 0 mm 2 m/s 700 mmHg 46%
    11:00 +21°C° 0 mm 2 m/s 700 mmHg 42%
    12:00 +24°C° 0 mm 1 m/s 700 mmHg 37%
    13:00 +25°C° 0 mm 2 m/s 700 mmHg 34%
    14:00 +26°C° 0 mm 2 m/s 699 mmHg 31%
    15:00 +26°C° 0 mm 2 m/s 699 mmHg 28%
    16:00 +26°C° 0 mm 2 m/s 699 mmHg 29%
    17:00 +26°C° 0 mm 2 m/s 699 mmHg 30%
    18:00 +26°C° 0 mm 2 m/s 699 mmHg 31%
    19:00 +24°C° 0 mm 2 m/s 699 mmHg 34%
    20:00 +21°C° 0 mm 2 m/s 699 mmHg 38%
    21:00 +19°C° 0 mm 2 m/s 699 mmHg 42%
    22:00 +18°C° 0 mm 2 m/s 698 mmHg 45%
    23:00 +18°C° 0 mm 1 m/s 698 mmHg 48%
    Arată mai mult